Location: Astronomy Adventures Observing Site
(35.3995°N, 106.1279°W)
Time: 19:06:50
(UTC-06:00)

Envisat - Pass Details

Date: 31 January 2022
Orbit: 764 x 765 km, 98.2° (Epoch: 27 May)

Event Time Altitude Azimuth Distance (km) Brightness Sun altitude
Rises 04:16:38 0° 22° (NNE) 3,234 6.5 -34.4°
Reaches altitude 10° 04:19:07 10° 31° (NNE) 2,304 5.8 -33.9°
Maximum altitude 04:23:48 37° 98° (E) 1,182 4.3 -33.0°
Drops below altitude 10° 04:28:27 10° 165° (SSE) 2,292 5.6 -32.0°
Sets 04:30:54 0° 173° (S) 3,214 6.3 -31.5°
